Location: Unspecified
(42.5696°N, 0.0000°E)
Time: 01:26:27
(UTC+00:00)

DOVE 4 - Visible Passes

Search period start: 05 April 2026 00:00
Search period end: 15 April 2026 00:00
Orbit: 573 x 754 km, 97.7° (Epoch: 29 March)

Date Brightness Start Highest point End Pass type
(mag) Time Alt. Az. Time Alt. Az. Time Alt. Az.
5 Apr ? 19:37:35 10° N 19:42:40 77° WNW 19:47:39 10° SSW visible
5 Apr ? 21:17:40 10° NW 21:18:46 11° WNW 21:19:52 10° WNW visible
6 Apr ? 05:05:12 10° E 05:06:54 12° ENE 05:08:38 10° NE visible
6 Apr ? 20:08:35 10° N 20:13:18 40° WNW 20:17:56 10° SW visible
7 Apr ? 19:02:14 10° NNE 19:07:09 49° E 19:11:59 10° S visible
7 Apr ? 20:39:59 10° NNW 20:43:46 22° WNW 20:47:31 10° WSW visible
8 Apr ? 19:32:51 10° N 19:37:57 84° WNW 19:42:55 10° SSW visible
8 Apr ? 21:12:24 10° NW 21:14:06 12° WNW 21:15:48 10° WNW visible
9 Apr ? 05:00:48 10° ENE 05:02:11 11° ENE 05:03:36 10° NE visible
9 Apr ? 20:03:48 10° N 20:08:35 43° WNW 20:13:15 10° SW visible
10 Apr ? 20:35:07 10° NNW 20:39:04 23° WNW 20:42:57 10° WSW visible
11 Apr ? 19:28:06 10° NNE 19:33:11 89° E 19:38:08 10° SSW visible
11 Apr ? 21:07:17 10° NW 21:09:24 13° WNW 21:11:29 10° W visible
12 Apr ? 19:59:00 10° N 20:03:50 47° WNW 20:08:32 10° SW visible
13 Apr ? 20:30:15 10° NNW 20:34:19 25° WNW 20:38:18 10° WSW visible
14 Apr ? 19:23:20 10° NNE 19:28:24 81° ESE 19:33:16 10° S visible
14 Apr ? 21:02:13 10° NNW 21:04:40 14° WNW 21:07:03 10° W visible
